Погода в Волоковой

Россия / Ненецкий автономный округ     66°29′00″N   48°14′36″E
темп.,
°C
ветер,
м/с
пор.,
м/с
влажн.,
%
обл.,
%
осадки,
мм/ч
давл.,
гПа
погр.,
м
12 мая, ср
ср1200:00+9ю4996100 0.1 1018179
03:00+10юз51189100 0.7 1017239
06:00+11юз61191100 0.5 1017305
09:00+12з71390100 3.7 1018630
12:00+11зсз7138991 0.1 1020756
15:00+12сз71073100 0.1 1022763
18:00+9ссз6872100 0.0 1024613
21:00+6ссв338311 0.0 102536
13 мая, чт
чт1300:00+4вюв338560 0.0 102644
03:00+4юв4690100 0.0 1025102
06:00+7юв588345 0.0 1023213
09:00+15ю58675 0.0 1020471
12:00+22юз710502 0.0 10181108
15:00+24зюз710380 0.0 10162041
18:00+21зсз58470 0.0 1015289
21:00+15зюз33690 0.0 101517
14 мая, пт
пт1400:00+13юз47790 0.0 101490
03:00+12юз46845 0.0 101469
06:00+15юз37727 0.0 1013237
09:00+19зсз455745 0.0 1012676
12:00+16ссз656711 0.1 1012387
15:00+17с55629 0.4 1012599
18:00+12св99695 0.0 1012556
21:00+9всв7972100 0.0 1014468
15 мая, сб
сб1500:00+7всв8117899 0.0 1014387
03:00+5всв81178100 0.0 1014373
06:00+4всв81187100 3.9 1014418
09:00+4в71086100 5.1 1015424
12:00+4всв6887100 1.6 1016434
15:00+3в7986100 2.3 1016391
18:00+3в71090100 0.0 1016445
21:00+3в71189100 0.0 1015471
16 мая, вс
вс1600:00+3в71187100 0.0 1015476
03:00+3в61085100 0.0 1014379
06:00+4в8117699 0.0 1013489
09:00+6в81063100 0.0 1012609
12:00+9в8957100 0.0 1011825
15:00+9вюв81155100 0.1 1012769
18:00+6в81474100 0.8 1011565
21:00+6в81473100 0.8 1010579